Regional Weather Roundup
Issued by NWS Sioux Falls, SD

Home | Current Version | Previous Version | Text Only | Print | Product List | Glossary On
Versions: 1 2 3 4 5 6 7 8 9 10 11 12 13 14 15 16 17 18 19 20 21 22 23 24 25 26 27 28 29 30 31 32 33 34 35 36 37 38 39 40 41 42 43 44 45 46 47 48 49 50
000
ASUS43 KFSD 232210
RWRFSD

WEATHER ROUNDUP FOR SE SOUTH DAKOTA/SW MINNESOTA/NW IOWA
NATIONAL WEATHER SERVICE SIOUX FALLS SD
500 PM CDT WED AUG 23 2017

NOTE: "FAIR" INDICATES FEW OR NO CLOUDS BELOW 12,000 FEET WITH NO
SIGNIFICANT WEATHER AND OR OBSTRUCTIONS TO VISIBILITY.


SDZ038>040-050-052>070-232300-
SOUTHEAST SOUTH DAKOTA

CITY           SKY/WX    TMP DP  RH WIND       PRES   REMARKS
BROOKINGS      SUNNY     74  57  55 SE12      30.02F
CHAMBERLAIN    SUNNY     88  64  45 S8        29.92F
HURON          PTSUNNY   79  59  50 S15       29.95F
MADISON        FAIR      73  59  60 S10G18    30.02F
MITCHELL       MOSUNNY   81  61  50 S16       29.96F
SIOUX FALLS    PTSUNNY   79  61  53 S14       30.02F
WINNER         FAIR      88  64  44 S15G22    29.92F
YANKTON        SUNNY     79  61  53 SE16      30.00F
$$

MNZ071-072-080-081-089-090-097-098-232300-
SOUTHWEST MINNESOTA

CITY           SKY/WX    TMP DP  RH WIND       PRES   REMARKS
FAIRMONT       SUNNY     75  51  43 VRB3      30.06F
JACKSON        MOSUNNY   73  52  46 CALM      30.07F
LUVERNE        MOSUNNY   75  52  43 S8        30.04F
MARSHALL       MOSUNNY   76  54  46 S8        30.03F
MONTEVIDEO     SUNNY     77  52  41 S5        30.03F
PIPESTONE      MOSUNNY   75  57  53 S7        30.04F
REDWOOD FALLS  SUNNY     76  48  37 SE6       30.04F
TRACY          PTSUNNY   76  55  47 S6        30.04F
WINDOM         SUNNY     75  48  38 CALM      30.05F
WORTHINGTON    SUNNY     75  53  46 S7        30.06F
$$

IAZ001>003-012>014-020>022-031-032-NEZ013-014-SDZ071-232300-
NORTHWEST IOWA

CITY           SKY/WX    TMP DP  RH WIND       PRES   REMARKS
CHEROKEE       MOSUNNY   77  56  47 S6        30.05F
DENISON        SUNNY     77  57  50 CALM      30.08F
ESTHERVILLE    MOSUNNY   74  53  48 MISG      30.06F
ORANGE CITY    SUNNY     79  61  53 S9        30.04F
SHELDON        SUNNY     77  59  53 VRB7G13   30.03F
SIOUX CITY     SUNNY     78  61  55 S10       30.04F
SPENCER        MOSUNNY   76  52  43 CALM      30.06F
STORM LAKE     SUNNY     73  57  56 S6        30.07F
$$

ABBREVIATIONS USED IN REMARKS
   TC - TEMPERATURE IN CELSIUS
  WCI - WIND CHILL INDEX
   HX - HEAT INDEX
  VSB - VISIBILITY




USA.gov is the U.S. government's official web portal to all federal, state and local government web resources and services.